Jackson, MN

6:31 AM CST on November 19, 2019 (GMT -0600)
Jackson Municipal

Weather History for KMJQ - August, 2019

Change the Weather History Date:

Saturday, August 17, 2019

  Actual Average Record
Temperature  
Mean Temperature 68 °F -  
Max Temperature 80 °F 76 °F 100 °F (2003)
Min Temperature 55 °F 56 °F 44 °F (2012)
Cooling Degree Days 2    
Growing Degree Days 18 (Base 50)    
Moisture  
Dew Point 61 °F    
Average Humidity 75    
Maximum Humidity 100    
Minimum Humidity 57    
Precipitation  
Precipitation 0.11 in - - ()
Sea Level Pressure  
Sea Level Pressure 29.82 in    
Wind  
Wind Speed 7 mph (SSE)    
Max Wind Speed 46 mph    
Max Gust Speed 56 mph    
Visibility 10 miles    
Events Thunderstorm    
Averages and records for this station are not official NWS values.
T = Trace of Precipitation, MM = Missing Value Source: NWS Daily Summary

Daily Weather History Graph

Daily Weather History Graph

Search for Another Location

Airport or City:

Astronomy

Aug. 17, 2019 Rise Set
Actual Time 6:26 AM CDT 8:20 PM CDT
Civil Twilight 5:55 AM CDT 8:51 PM CDT
Nautical Twilight 5:17 AM CDT 9:29 PM CDT
Astronomical Twilight 4:36 AM CDT 10:09 PM CDT
Moon 9:45 PM CDT (8/17) 8:18 AM CDT (8/17)
Length of Visible Light 14h 55m
Length of Day
13h 54m
Waning Gibbous, 96% of the Moon is Illuminated
Aug 17
Waning Gibbous
Aug 23
Last Quarter
Aug 30
New
Sep 5
First Quarter
Sep 13
Full

Hourly Weather History & Observations

Time (CDT) Temp. Heat Index Dew Point Humidity Pressure Visibility Wind Dir Wind Speed Gust Speed Precip Events Conditions
12:15 AM 62.6 °F - 57.2 °F 82% 29.93 in 10.0 mi SSW 6.9 mph - N/A   Clear
12:35 AM 60.8 °F - 55.4 °F 82% 29.94 in 10.0 mi SSW 5.8 mph - N/A   Clear
12:55 AM 60.8 °F - 55.4 °F 82% 29.91 in 10.0 mi SSE 3.5 mph - N/A   Clear
1:17 AM 60.8 °F - 55.4 °F 82% 29.90 in 10.0 mi South 3.5 mph - N/A   Clear
1:35 AM 60.8 °F - 55.4 °F 82% 29.90 in 10.0 mi South 5.8 mph - N/A   Clear
1:55 AM 60.8 °F - 55.4 °F 82% 29.90 in 10.0 mi South 4.6 mph - N/A   Clear
2:16 AM 60.8 °F - 55.4 °F 82% 29.88 in 10.0 mi South 3.5 mph - N/A   Clear
2:35 AM 60.8 °F - 55.4 °F 82% 29.86 in 10.0 mi Calm Calm - N/A   Clear
2:55 AM 59.0 °F - 55.4 °F 88% 29.84 in 10.0 mi Calm Calm - N/A   Clear
3:15 AM 55.4 °F - 53.6 °F 94% 29.77 in 10.0 mi North 5.8 mph - N/A   Clear
3:35 AM 55.4 °F - 53.6 °F 94% 29.77 in 10.0 mi Calm Calm - N/A   Clear
3:55 AM 55.4 °F - 53.6 °F 94% 29.81 in 10.0 mi South 3.5 mph - N/A   Clear
4:15 AM 59.0 °F - 55.4 °F 88% 29.86 in 10.0 mi South 10.4 mph - N/A   Clear
4:35 AM 59.0 °F - 55.4 °F 88% 29.87 in 10.0 mi South 5.8 mph - N/A   Clear
4:55 AM 57.2 °F - 53.6 °F 88% 29.87 in 10.0 mi South 5.8 mph - N/A   Clear
5:15 AM 59.0 °F - 53.6 °F 82% 29.89 in 10.0 mi South 6.9 mph - N/A   Clear
5:35 AM 59.0 °F - 53.6 °F 82% 29.90 in 10.0 mi South 6.9 mph - N/A   Clear
5:55 AM 59.0 °F - 53.6 °F 82% 29.90 in 10.0 mi South 6.9 mph - N/A   Clear
5:56 AM 59.0 °F - 53.6 °F 82% 29.90 in 10.0 mi South 6.9 mph - N/A   Clear
6:15 AM 59.0 °F - 53.6 °F 82% 29.90 in 10.0 mi South 8.1 mph - N/A   Clear
6:35 AM 59.0 °F - 55.4 °F 88% 29.90 in 10.0 mi South 9.2 mph - N/A   Clear
6:55 AM 60.8 °F - 55.4 °F 82% 29.89 in 10.0 mi SSW 8.1 mph - N/A   Clear
7:15 AM 60.8 °F - 55.4 °F 82% 29.88 in 10.0 mi SSW 8.1 mph - N/A   Clear
7:35 AM 60.8 °F - 55.4 °F 82% 29.88 in 10.0 mi South 8.1 mph - N/A   Clear
7:56 AM 60.8 °F - 55.4 °F 82% 29.87 in 10.0 mi South 6.9 mph - N/A   Clear
8:15 AM 62.6 °F - 57.2 °F 82% 29.87 in 10.0 mi South 5.8 mph - N/A   Clear
8:35 AM 62.6 °F - 59.0 °F 88% 29.87 in 10.0 mi South 4.6 mph - N/A   Clear
8:36 AM 62.6 °F - 59.0 °F 88% 29.87 in 10.0 mi South 5.8 mph - N/A   Clear
8:55 AM 66.2 °F - 59.0 °F 78% 29.86 in 10.0 mi South 5.8 mph - N/A   Clear
9:15 AM 68.0 °F - 60.8 °F 78% 29.86 in 10.0 mi SSE 6.9 mph - N/A   Clear
9:35 AM 69.8 °F - 60.8 °F 73% 29.85 in 10.0 mi South 6.9 mph - N/A   Clear
9:55 AM 71.6 °F - 60.8 °F 69% 29.84 in 10.0 mi South 9.2 mph - N/A   Clear
10:15 AM 71.6 °F - 62.6 °F 73% 29.85 in 10.0 mi SSE 8.1 mph - N/A   Clear
10:35 AM 73.4 °F - 62.6 °F 69% 29.84 in 10.0 mi SSE 6.9 mph - N/A   Scattered Clouds
10:55 AM 75.2 °F - 62.6 °F 65% 29.84 in 10.0 mi SSE 4.6 mph - N/A   Clear
10:56 AM 75.2 °F - 62.6 °F 65% 29.84 in 10.0 mi SSE 3.5 mph - N/A   Clear
11:15 AM 75.2 °F - 62.6 °F 65% 29.84 in 10.0 mi SE 5.8 mph - N/A   Clear
11:35 AM 77.0 °F - 64.4 °F 65% 29.84 in 10.0 mi SE 10.4 mph - N/A   Clear
11:55 AM 77.0 °F - 62.6 °F 61% 29.83 in 10.0 mi SE 5.8 mph 9.2 mph N/A   Clear
12:15 PM 77.0 °F - 62.6 °F 61% 29.83 in 10.0 mi SSE 8.1 mph - N/A   Clear
12:35 PM 78.8 °F - 62.6 °F 57% 29.83 in 10.0 mi SSE 8.1 mph - N/A   Clear
12:55 PM 78.8 °F - 64.4 °F 61% 29.83 in 10.0 mi SE 9.2 mph - N/A   Clear
1:15 PM 78.8 °F - 62.6 °F 57% 29.83 in 10.0 mi SSE 9.2 mph - N/A   Clear
1:35 PM 78.8 °F - 62.6 °F 57% 29.83 in 10.0 mi SE 6.9 mph - N/A   Scattered Clouds
1:55 PM 80.6 °F 82.3 °F 64.4 °F 58% 29.82 in 10.0 mi ESE 8.1 mph - N/A   Scattered Clouds
2:15 PM 78.8 °F - 64.4 °F 61% 29.82 in 10.0 mi SE 11.5 mph - N/A   Scattered Clouds
2:35 PM 80.6 °F 82.3 °F 64.4 °F 58% 29.82 in 10.0 mi SE 10.4 mph - N/A   Mostly Cloudy
2:55 PM 78.8 °F - 66.2 °F 65% 29.81 in 10.0 mi ESE 13.8 mph - N/A   Mostly Cloudy
3:15 PM 78.8 °F - 66.2 °F 65% 29.80 in 10.0 mi SE 12.7 mph 16.1 mph N/A   Scattered Clouds
3:35 PM 80.6 °F 82.7 °F 66.2 °F 61% 29.79 in 10.0 mi ESE 12.7 mph - N/A   Scattered Clouds
3:55 PM 80.6 °F 82.3 °F 64.4 °F 58% 29.79 in 10.0 mi SE 10.4 mph 17.3 mph N/A   Scattered Clouds
4:15 PM 78.8 °F - 64.4 °F 61% 29.79 in 10.0 mi SE 11.5 mph - N/A   Scattered Clouds
4:35 PM 80.6 °F 82.7 °F 66.2 °F 61% 29.78 in 10.0 mi SE 13.8 mph 17.3 mph N/A   Clear
4:55 PM 80.6 °F 82.3 °F 64.4 °F 58% 29.78 in 10.0 mi SE 11.5 mph - N/A   Scattered Clouds
5:17 PM 80.6 °F 82.3 °F 64.4 °F 58% 29.77 in 10.0 mi SE 13.8 mph - N/A   Scattered Clouds
5:35 PM 78.8 °F - 66.2 °F 65% 29.76 in 10.0 mi SE 10.4 mph 20.7 mph N/A   Scattered Clouds
5:55 PM 80.6 °F 82.7 °F 66.2 °F 61% 29.75 in 10.0 mi SE 15.0 mph - N/A   Scattered Clouds
6:15 PM 78.8 °F - 66.2 °F 65% 29.73 in 10.0 mi SSE 15.0 mph 21.9 mph N/A   Scattered Clouds
6:35 PM 77.0 °F - 66.2 °F 69% 29.73 in 10.0 mi SE 16.1 mph 24.2 mph N/A   Scattered Clouds
6:36 PM 77.0 °F - 66.2 °F 69% 29.73 in 10.0 mi SE 16.1 mph 23.0 mph N/A   Scattered Clouds
6:55 PM 77.0 °F - 66.2 °F 69% 29.73 in 10.0 mi SSE 12.7 mph 18.4 mph N/A   Scattered Clouds
7:15 PM 77.0 °F - 66.2 °F 69% 29.73 in 10.0 mi SSE 13.8 mph 20.7 mph N/A   Scattered Clouds
7:16 PM 77.0 °F - 66.2 °F 69% 29.73 in 10.0 mi SSE 15.0 mph 20.7 mph N/A   Scattered Clouds
7:35 PM 75.2 °F - 64.4 °F 69% 29.73 in 10.0 mi SSE 9.2 mph - N/A   Clear
7:55 PM 73.4 °F - 66.2 °F 78% 29.73 in 10.0 mi SSE 10.4 mph - N/A   Scattered Clouds
8:15 PM 73.4 °F - 66.2 °F 78% 29.73 in 10.0 mi SSE 6.9 mph - N/A   Mostly Cloudy
8:35 PM 73.4 °F - 66.2 °F 78% 29.72 in 10.0 mi SSE 8.1 mph - N/A   Mostly Cloudy
8:55 PM 71.6 °F - 66.2 °F 83% 29.72 in 10.0 mi SE 6.9 mph - N/A   Scattered Clouds
9:15 PM 71.6 °F - 66.2 °F 83% 29.76 in 10.0 mi SSE 3.5 mph - N/A   Scattered Clouds
9:35 PM 71.6 °F - 66.2 °F 83% 29.75 in 10.0 mi SE 4.6 mph - N/A   Mostly Cloudy
9:55 PM 71.6 °F - 66.2 °F 83% 29.73 in 10.0 mi SSE 8.1 mph - N/A   Scattered Clouds
10:15 PM 71.6 °F - 66.2 °F 83% 29.71 in 10.0 mi SSE 11.5 mph - N/A   Scattered Clouds
10:35 PM 71.6 °F - 68.0 °F 88% 29.69 in 10.0 mi SSE 15.0 mph - N/A   Scattered Clouds
10:55 PM 71.6 °F - 68.0 °F 88% 29.70 in 10.0 mi SSE 11.5 mph 18.4 mph N/A Thunderstorm Scattered Clouds
11:15 PM 71.6 °F - 68.0 °F 88% 29.69 in 10.0 mi SSE 15.0 mph 23.0 mph N/A Thunderstorm Thunderstorm
11:35 PM 71.6 °F - 66.2 °F 83% 29.83 in 10.0 mi West 46.0 mph 56.4 mph N/A Thunderstorm Thunderstorm
11:55 PM 59.0 °F - 59.0 °F 100% 29.76 in 1.8 mi SSW 9.2 mph - 0.11 in Thunderstorm Thunderstorm